Location: The Rolnick Observatory
(41.1711°N, 73.3275°W)
Time: 16:33:29
(UTC-04:00)

Daily predictions for brighter satellites

Satellite Brightness Start Highest point End
(mag) Time Altitude Azimuth Time Altitude Azimuth Time Altitude Azimuth
Abrixas 4.5 19:38:21 10° W 19:40:40 23° SW 19:42:58 10° SSE
Cosmos 1766 4.1 19:37:54 10° SSW 19:41:42 56° W 19:45:33 10° N
Cosmos 1758 3.3 19:39:44 10° S 19:43:38 58° E 19:47:36 10° NNE
Cosmos 1766 Rocket 4.2 19:39:49 10° N 19:43:59 36° ENE 19:48:07 10° SE
Cosmos 2369 Rocket 3.9 19:45:06 10° ESE 19:45:52 10° E 19:46:38 10° E
HJ-1C 3.5 19:42:47 10° SSE 19:46:07 56° ENE 19:49:29 10° N
FENGYUN 3A 3.7 19:40:54 10° SSE 19:46:16 69° ENE 19:51:38 10° N
Cosmos 1953 2.4 19:44:27 10° S 19:48:27 61° E 19:52:27 10° NNE
Lacrosse 5 3.8 19:46:48 10° W 19:51:12 29° NNW 19:55:37 10° NNE
Cosmos 1833 Rocket 2.7 19:50:20 10° NNW 19:55:58 73° ENE 20:01:35 10° SSE
GP-B 3.7 19:54:15 10° SSE 19:58:18 36° E 20:02:22 10° NNE
ATLAS 5 CENTAUR R/B 1.8 19:59:12 10° SSW 20:03:51 88° SE 20:08:58 10° NE
CZ-2D R/B 3.5 20:01:18 10° SSE 20:05:02 48° ENE 20:08:48 10° N
Cosmos 482 Debris 3.5 20:05:20 10° NW 20:07:01 30° NNE 20:07:45 21° ENE
Lacrosse 5 rocket 1.1 20:03:15 10° NW 20:07:13 80° NE 20:10:29 13° SE
Cosmos 1805 4.0 20:03:33 10° SSW 20:07:22 56° W 20:11:14 10° N
ALOS 2.6 20:03:05 10° S 20:07:44 69° WSW 20:12:25 10° NNW
Cosmos 158 Rocket 4.0 20:02:33 10° NNW 20:07:45 86° ENE 20:13:03 10° SSE
Meteor 1-29 4.3 20:05:39 10° NE 20:08:18 20° E 20:10:58 10° SE
USA 215 4.5 20:04:14 10° E 20:08:26 18° ESE 20:12:36 10° SSE
Cosmos 372 Rocket 4.0 20:03:21 10° SSW 20:08:28 87° WNW 20:13:40 10° NNE
Cosmos 2278 Rocket 4.1 20:05:10 10° WSW 20:10:15 33° WNW 20:15:23 10° N
Resurs 01 Rocket 1.6 20:06:46 10° SSE 20:11:11 81° ENE 20:15:38 10° N
Cosmos 1743 Rocket 4.2 20:10:41 10° N 20:14:49 36° ENE 20:18:36 12° SE
Cosmos 1733 3.2 20:11:26 10° S 20:15:13 58° E 20:19:03 10° NNE
CZ-4C R/B 3.2 20:11:45 10° SSE 20:15:28 20° ESE 20:19:29 10° ENE
USA 186 1.5 20:16:04 28° ESE 20:16:38 33° ENE 20:18:41 10° N
Helios 1B rocket 2.9 20:15:31 10° NNE 20:19:24 39° E 20:23:15 10° SSE
Cosmos 2251 Rocket 4.1 20:14:43 10° N 20:19:44 40° ENE 20:23:30 17° SE
Meteor 1-21 Rocket 4.5 20:14:06 10° NNW 20:19:58 79° W 20:25:53 10° S
COSMOS 2487 3.6 20:17:27 10° NNW 20:20:54 45° WSW 20:24:18 10° S
BREEZE-M DEB (TANK) 3.8 20:19:11 10° NW 20:21:03 20° NNE 20:22:27 15° ENE
Cosmos 2100 Rocket 4.0 20:16:07 10° S 20:22:22 67° E 20:28:42 10° NNE
Cosmos 2151 4.2 20:19:48 10° NNE 20:23:12 23° ENE 20:24:19 21° E
Gblst 52 Del rocket 4.4 20:19:14 10° SSW 20:25:08 50° SE 20:30:31 10° ENE
Cosmos 1470 2.7 20:23:30 10° S 20:27:28 88° ESE 20:31:28 10° N
SAR-Lupe-4 3.5 20:27:04 15° SSE 20:29:55 62° ENE 20:33:29 10° N
PSLV R/B 4.0 20:27:43 10° SW 20:30:33 30° SSE 20:31:00 29° SE
Cosmos 1408 Rocket 4.0 20:28:32 10° NNW 20:32:59 66° W 20:37:23 10° S
H-2A R/B 3.9 20:32:03 10° S 20:35:48 46° W 20:39:38 10° NNW
TIMED 4.4 20:32:33 10° SSW 20:36:55 86° ESE 20:41:19 10° NNE
YAOGAN 6 4.2 20:37:47 20° ENE 20:37:47 20° ENE 20:40:15 10° NNE
Cosmos 494 Rocket 4.0 20:32:46 10° NNW 20:37:49 58° ENE 20:40:57 23° SE
Spot 2 Rocket 4.1 20:34:13 10° S 20:39:14 59° WSW 20:44:19 10° NNW
OAO 2 Rocket 4.2 20:35:28 10° SW 20:40:05 34° SSE 20:41:53 26° SE
Cosmos 2082 Rocket 3.3 20:35:05 10° NW 20:40:26 43° WSW 20:45:44 10° S
Resurs 1-3 4.3 20:37:31 10° S 20:41:48 54° W 20:46:07 10° NNW
GPS 2-05 Rocket1 4.0 20:40:54 10° WSW 20:44:03 30° S 20:44:44 28° SSE
Cosmos 1184 Rocket 2.7 20:44:05 10° N 20:47:28 80° E 20:48:38 38° SSE
SAR-Lupe-1 4.0 20:46:27 24° SSE 20:48:31 87° WSW 20:52:07 10° NNW
Cosmos 1802 Rocket 3.9 20:42:32 10° S 20:48:40 84° E 20:54:53 10° N
Cosmos 1340 Rocket 3.3 20:45:10 10° NNW 20:49:07 59° W 20:53:01 10° S
Helios 1A 3.0 20:45:49 14° S 20:49:19 81° WSW 20:53:32 10° NNW
Cosmos 1842 Rocket 3.4 20:45:30 10° S 20:49:53 70° E 20:54:16 10° NNE
CZ-4B DEB 2.5 20:49:48 57° SSE 20:50:20 78° ENE 20:53:27 10° N
Cosmos 389 Rocket 2.4 20:52:51 55° SE 20:53:12 58° E 20:56:41 10° NNE
SeaSat 1 3.6 20:51:11 10° S 20:55:48 40° WSW 21:00:27 10° NW
Meteor 1-16 Rocket 4.2 20:50:20 10° S 20:56:11 76° E 21:02:08 10° NNE
Envisat 2.9 20:54:15 22° SSE 20:57:31 79° ENE 21:02:36 10° N
Cosmos 1356 Rocket 3.2 20:55:19 10° N 20:59:25 83° E 21:00:45 41° SSE
Cosmos 1459 Rocket 4.4 20:56:19 10° SSW 21:02:29 65° W 21:08:36 10° N
ERS-1 Rocket 3.2 21:03:09 42° ESE 21:04:13 48° ENE 21:09:02 10° N
ISS -1.6 21:01:35 10° WNW 21:04:16 23° NNW 21:06:01 16° NNE
Meteor 1-11 4.1 20:58:53 10° N 21:04:29 73° E 21:07:16 31° SSE
Meteor 2-17 Rocket 4.4 20:59:22 10° S 21:05:32 86° W 21:11:43 10° N
SL-14 R/B 3.2 21:02:51 10° N 21:06:44 83° W 21:07:46 48° S
Geosat 4.1 21:04:21 10° NNE 21:09:22 75° WNW 21:14:22 10° SW
Cosmos 2233 Rocket 4.2 21:12:07 41° ESE 21:13:15 46° E 21:19:04 10° NNE
Cosmos 1626 3.7 21:13:40 10° N 21:15:35 25° NNE 21:15:35 25° NNE
Cosmos 1864 Rocket 4.4 21:13:45 10° S 21:20:05 85° E 21:26:25 10° N
MetOp-B 4.4 21:20:39 45° ENE 21:20:50 46° ENE 21:25:55 10° N
H-2A R/B 3.5 21:28:33 23° NE 21:28:33 23° NE 21:31:42 10° NNE
Cosmos 2369 Rocket 2.0 21:23:19 10° SSW 21:28:57 84° ESE 21:34:36 10° NNE
Meteor 2-1 Rocket 4.1 21:27:08 28° S 21:30:17 86° E 21:35:57 10° N
Cosmos 2221 3.1 21:33:23 48° NNE 21:33:23 48° NNE 21:36:36 10° N
Cosmos 2058 3.1 21:29:18 10° NNW 21:33:13 68° WNW 21:33:13 68° WNW
Lacrosse 5 4.5 21:33:09 10° NW 21:35:42 14° N 21:38:16 10° NNE
Cosmos 1703 4.3 21:32:16 10° N 21:34:51 39° N 21:34:51 39° N
Terra 4.1 21:39:38 13° NE 21:39:38 13° NE 21:40:32 10° NNE
SPOT 5 3.3 21:40:46 55° NE 21:40:46 55° NE 21:45:27 10° N
Cosmos 1939 Rocket 4.2 21:40:21 33° SW 21:41:11 37° W 21:45:04 10° NNW
Cosmos 1943 Rocket 3.7 21:48:53 24° NE 21:48:53 24° NE 21:51:05 10° NNE
Lacrosse 5 rocket 4.0 21:45:17 10° WSW 21:45:45 10° WSW 21:46:12 10° SW
CZ-3B DEB 4.1 21:42:42 10° WNW 21:46:49 17° NNW 21:49:27 11° NNE
NOAA 11 4.1 21:49:56 79° NE 21:49:56 79° NE 21:55:17 10° NNW
H-2A R/B 4.5 21:53:31 13° NNE 21:53:31 13° NNE 21:54:06 10° NNE
USA 215 3.1 21:45:32 10° NE 21:52:05 75° SE 21:58:36 10° SW
Cosmos 2263 4.1 21:52:40 85° N 21:52:40 85° N 21:58:14 10° NNE
CZ-4C R/B 2.6 21:58:06 10° SW 22:03:17 58° NW 22:09:13 10° NNE
MetOp-A 4.4 22:07:06 65° WNW 22:07:06 65° WNW 22:12:03 10° NNW
SPOT 1/Viking Rocket 4.4 22:13:12 44° N 22:13:12 44° N 22:16:46 10° N
ARGOS 3.7 22:17:29 55° NNW 22:17:29 55° NNW 22:21:41 10° NNW
USA 267 3.8 22:24:10 45° NE 22:24:21 45° NNE 22:30:30 10° NW
Cosmos 2297 Rocket 4.4 22:59:23 10° N 23:01:13 17° NNE 23:01:13 17° NNE
H-2A R/B 4.0 23:09:11 26° NW 23:09:11 26° NW 23:11:40 10° NNW
Terra 4.5 23:18:31 17° NNW 23:18:31 17° NNW 23:19:34 10° NNW
ATLAS 3B R/B 4.0 23:20:37 34° NNE 23:20:37 34° NNE 23:24:25 10° NNE
Cosmos 1943 Rocket 4.3 23:30:17 22° NW 23:30:17 22° NW 23:34:02 10° N
Cosmos 2227 Rocket 4.4 23:25:20 10° N 23:27:14 20° N 23:27:14 20° N
USA 215 4.4 23:28:50 10° NE 23:36:09 35° NW 23:40:43 10° W
